SCP
1 0 0 0 0 0 0 0 1 1 1 1 0 0 1 1 1 1 1 1 1 1 1 1 1 1 1 1 1 1 0 0 0 0 0 0 0 0 0 0 1 1 1
1 1 1 1 0 0 0 0 1 1 1 1 0 0 0 1 1 1 1 1 1 1 1 1 1 1 1 1 1 1 0 0 0 0 0 0 0 0 1 1 1 1 1
1 1 1 1 1 0 0 1 1 1 0 0 0 0 0 1 1 1 1 1 1 1 1 0 0 1 0 0 0 0 0 0 0 0 0 0 0 0 1 1 1 1 1
1 1 1 1 1 1 1 1 1 1 1 1 0 1 1 1 1 1 1 1 1 1 0 0 0 0 0 0 0 0 0 0 0 0 0 0 0 1 1 1 1 1 1
1 1 1 1 1 1 1 1 1 1 1 1 0 1 1 1 1 1 1 1 1 0 0 0 0 0 0 0 0 0 0 1 0 0 0 0 0 1 1 1 1 1 1
1 1 1 1 1 1 1 1 1 1 1 1 0 0 1 1 1 1 1 0 0 0 0 0 0 0 0 0 0 0 0 0 0 0 0 0 0 1 1 1 1 1 1
1 1 1 1 1 1 1 1 1 1 1 1 0 0 1 1 1 1 1 1 0 0 0 0 0 0 0 0 0 0 0 0 0 0 0 0 1 1 1 1 1 1 1
2 1 1 1 1 1 1 1 1 1 1 1 1 1 1 1 0 0 1 1 1 1 1 0 0 0 0 1 0 0 1 0 0 0 0 1 1 1 1 1 1 1 1
1 1 1 1 1 1 1 1 1 1 1 1 1 1 1 1 0 0 0 0 1 1 1 0 0 0 0 1 0 0 0 0 0 0 0 1 1 1 1 1 1 1 1
1 1 1 1 1 1 1 1 1 1 1 1 1 1 0 0 0 0 0 1 0 0 0 0 0 0 0 1 1 0 0 0 0 0 1 1 1 1 0 0 1 1 1
1 1 1 1 1 1 1 1 1 1 0 1 0 0 0 0 0 0 1 1 1 1 0 0 0 0 0 1 1 1 0 0 0 0 1 1 1 1 1 0 0 1 1
1 1 1 1 1 1 1 1 1 0 0 0 0 0 0 0 0 0 1 1 1 1 0 0 0 0 0 0 1 1 0 0 0 1 1 1 1 1 1 1 1 1 1
2 1 1 1 1 1 1 1 1 0 0 0 0 0 0 0 0 0 0 1 1 0 0 0 1 0 0 0 1 1 0 0 0 1 1 2 1 1 1 1 1 1 1
2 2 2 2 2 1 1 1 1 1 1 0 0 0 1 0 0 1 1 1 0 0 0 1 1 1 0 0 1 1 0 1 1 1 2 2 2 1 1 1 1 1 1
3 3 2 2 2 1 1 1 1 1 1 1 1 1 1 1 1 1 1 1 0 0 0 1 1 1 0 0 0 0 0 1 1 1 2 2 2 1 1 1 1 0 0
3 3 3 2 2 2 1 1 1 1 1 1 1 1 1 1 1 1 1 1 0 0 0 0 0 0 0 0 0 0 0 0 1 1 2 2 2 2 1 1 1 0 0
3 3 3 2 2 2 2 1 1 1 1 1 1 1 1 1 1 1 1 1 0 0 0 0 0 0 0 0 0 0 0 0 1 1 2 2 2 2 1 1 1 1 1
3 3 2 2 1 2 2 2 1 1 1 2 2 1 1 1 1 1 1 1 1 0 0 0 0 0 0 0 0 0 0 0 0 1 1 2 1 1 1 1 1 1 1
2 3 2 2 1 2 2 2 2 2 2 2 2 2 2 1 1 1 1 1 1 1 0 0 0 0 0 0 0 0 0 0 0 1 1 1 1 1 1 1 1 1 1
3 3 3 2 2 2 2 2 2 3 3 3 3 3 2 2 2 1 1 1 1 1 1 0 0 0 0 0 0 0 0 0 0 0 1 1 1 1 1 1 1 1 1
3 3 3 3 2 2 2 2 2 3 3 3 4 3 3 2 2 1 1 1 1 1 1 0 0 0 0 0 0 0 0 0 0 0 0 1 1 1 1 1 1 1 1
2 2 2 2 2 2 2 2 2 2 2 3 4 4 4 3 2 2 1 1 1 1 1 0 0 0 0 0 0 0 0 0 0 0 0 0 1 1 1 1 1 1 1
1 1 2 2 2 2 2 2 2 2 2 2 3 4 4 3 2 2 1 1 1 1 0 0 0 0 0 0 0 0 0 0 0 0 0 0 0 1 1 1 1 1 1
1 1 1 1 1 1 2 2 2 2 1 2 3 4 4 3 3 2 2 1 1 0 0 0 0 0 0 0 0 0 0 0 0 0 0 0 0 1 1 1 1 1 1
2 2 1 1 1 1 1 2 2 2 2 1 2 3 3 3 3 3 2 1 1 0 0 0 0 0 0 0 0 0 0 0 0 0 0 0 0 0 0 1 1 1 1
2 2 1 1 1 1 1 1 2 2 2 2 2 2 3 3 3 3 2 1 1 0 0 0 0 0 0 0 0 0 0 0 0 0 0 0 0 0 0 0 0 1 1
Wind_Speed
6 8 9 10 10 10 10 10 10 10 11 12 12 11 11 11 11 11 11 11 11 11 11 11 11 11 11 11 11 11 10 9 9 10 10 9 9 8 8 7 7 6 9
8 10 10 10 10 11 10 10 11 11 12 12 12 12 11 11 11 10 11 11 11 12 11 11 11 11 12 12 11 10 10 9 8 9 9 9 9 8 8 8 8 6 9
9 10 9 10 11 11 11 11 12 12 12 12 12 12 11 11 11 11 11 11 11 11 11 11 11 11 11 11 10 9 9 8 7 7 7 5 6 9 8 8 8 8 8
10 10 10 10 11 11 12 12 12 12 12 12 12 12 12 11 11 11 10 11 10 11 11 11 11 10 10 10 9 9 8 8 7 6 4 5 5 9 9 9 9 8 8
11 11 10 11 12 12 12 12 12 12 12 12 12 12 12 12 11 11 11 10 10 10 10 10 10 10 10 10 9 8 8 8 7 6 5 5 5 9 10 9 9 9 8
11 11 10 11 12 12 12 12 12 12 13 12 12 12 12 12 11 11 11 10 9 9 10 10 10 10 10 9 8 7 7 8 6 5 5 5 5 9 10 10 9 9 8
10 11 10 12 12 12 12 11 12 12 12 11 12 11 11 11 11 11 11 10 9 9 9 9 10 9 9 8 7 7 6 6 5 5 6 5 6 10 10 9 9 8 8
10 11 10 11 11 12 12 11 11 11 11 11 11 11 11 11 11 11 10 10 10 10 10 9 9 8 8 7 6 6 6 6 6 6 6 6 9 10 9 9 9 8 7
9 9 8 8 9 10 11 11 11 10 10 10 10 9 9 10 10 11 11 10 10 10 9 8 7 7 6 5 4 5 6 6 4 3 6 5 9 9 9 9 9 8 8
7 7 8 8 7 7 7 9 10 9 8 8 7 7 7 8 9 9 9 9 10 9 8 7 7 6 4 3 3 3 4 4 4 4 4 6 9 9 9 9 9 9 9
6 5 6 7 7 7 7 8 7 7 6 5 4 4 4 3 4 5 8 8 8 7 6 5 4 3 3 2 1 2 3 3 4 4 4 8 10 9 9 9 9 9 9
5 4 5 6 6 6 5 5 3 4 3 2 2 3 2 3 3 5 6 6 5 5 3 2 1 1 1 1 1 2 2 3 4 4 5 10 10 10 9 9 9 9 9
5 4 4 4 6 5 3 3 2 2 2 1 2 3 3 3 3 3 2 2 2 2 1 1 1 0 1 2 2 3 3 3 3 4 5 10 10 10 10 9 9 9 9
5 4 4 4 5 5 4 3 2 2 1 2 2 3 3 1 2 2 1 1 1 1 1 1 1 2 3 4 4 4 4 3 4 4 5 10 9 10 10 10 9 9 8
5 4 4 4 4 5 4 2 3 2 2 3 1 2 3 2 2 1 2 2 2 2 2 2 2 3 4 4 4 5 5 5 5 4 4 9 9 9 9 9 9 8 8
5 5 4 3 4 4 4 2 2 2 2 3 1 1 3 2 2 2 3 2 2 2 1 2 3 3 3 3 4 5 4 4 4 5 4 5 9 9 9 9 9 8 7
5 5 4 3 3 4 4 3 3 2 2 2 1 2 3 2 2 2 2 2 1 2 2 3 4 3 3 4 4 4 4 3 3 4 4 3 3 7 9 9 8 8 7
5 6 4 3 3 4 3 3 2 2 2 2 2 2 2 2 3 3 2 1 2 2 2 2 2 2 3 3 2 2 2 2 3 3 3 3 3 3 5 8 8 7 7
5 6 4 3 4 3 3 3 3 3 2 2 2 2 2 2 3 3 2 1 3 2 2 2 3 2 2 2 1 2 2 2 2 3 3 4 4 4 3 5 7 7 7
5 5 5 3 3 4 2 2 2 2 2 2 2 2 3 2 3 3 1 3 3 3 3 3 3 3 2 1 2 2 1 1 2 2 3 3 3 3 3 4 3 4 6
4 5 5 4 3 3 2 2 2 2 1 1 2 2 2 2 3 3 2 3 3 3 2 2 2 2 1 2 2 2 1 2 2 2 2 2 3 3 3 3 2 2 2
4 4 4 4 3 3 2 2 1 2 2 2 2 2 1 2 3 2 3 3 3 2 3 2 2 2 1 1 1 1 1 2 2 1 1 1 2 2 2 2 2 2 2
4 4 4 4 4 3 3 2 2 2 1 1 1 1 1 2 2 2 3 2 2 2 2 2 2 2 1 1 1 1 1 0 1 1 1 1 2 1 1 1 1 2 3
4 3 3 4 4 3 3 2 2 2 2 2 2 2 1 2 2 2 2 2 2 2 2 1 2 2 1 0 1 1 1 1 1 1 2 1 1 1 0 1 2 2 3
5 4 3 4 3 3 3 3 2 2 1 1 2 2 2 2 2 2 2 1 2 2 2 2 2 1 1 1 0 1 1 1 1 1 0 1 1 0 0 1 1 1 2
5 4 3 3 3 3 3 3 2 2 2 2 2 2 1 2 1 2 2 1 1 2 2 2 2 1 1 1 0 0 1 0 0 0 1 1 0 1 0 1 1 1 1
Wind_Direction
88 87 67 63 60 61 60 60 59 63 73 80 81 81 80 78 75 73 74 77 76 75 74 76 76 76 75 76 76 77 81 87 94 100 100 101 101 100 103 106 105 101 108
95 93 74 69 67 64 63 64 64 67 77 80 79 78 79 78 76 77 77 77 76 74 72 73 73 75 75 76 77 78 78 83 94 103 104 97 96 97 97 92 93 101 105
95 95 81 72 72 68 65 68 69 71 77 79 80 79 79 78 77 77 79 79 77 76 74 73 73 74 73 75 76 75 73 73 83 93 100 102 94 93 93 88 88 92 98
93 89 80 75 75 71 69 71 71 73 78 79 79 78 77 76 76 75 77 77 76 77 76 75 73 73 74 73 73 69 64 63 69 75 84 87 88 91 90 90 90 87 88
89 88 85 80 78 75 73 72 71 73 75 76 76 77 76 75 75 76 78 78 78 78 78 76 74 75 74 71 67 62 60 58 56 62 72 78 77 91 93 93 93 92 91
94 94 93 87 84 79 76 76 76 75 76 76 76 77 78 77 75 76 78 77 78 80 79 77 78 77 74 69 62 54 51 52 52 62 67 77 80 88 90 91 91 90 92
100 100 102 96 91 85 80 78 80 78 78 78 77 77 80 78 77 77 77 76 77 80 79 78 80 80 76 70 62 50 44 46 74 66 71 76 83 87 86 86 89 91 96
105 106 108 106 99 93 88 86 84 82 80 80 81 80 82 82 80 79 78 78 77 77 78 79 78 82 79 70 58 43 31 38 71 76 78 79 83 82 83 82 83 88 95
106 114 118 118 108 101 97 92 88 87 86 86 86 86 89 89 87 83 79 80 80 79 78 80 81 82 81 74 58 37 34 35 51 63 79 78 84 86 87 84 82 82 89
115 119 127 127 123 117 108 104 101 98 96 97 99 99 98 96 95 93 87 83 85 84 83 84 83 84 86 79 59 40 43 34 60 60 72 82 83 87 88 85 84 82 83
112 120 129 129 128 125 125 119 119 115 111 116 120 122 120 115 113 102 96 95 93 93 92 95 97 100 111 121 92 49 47 71 69 67 69 82 85 90 90 87 86 84 84
128 122 120 129 127 124 123 129 139 128 137 141 125 124 119 98 92 95 107 110 114 119 123 135 151 146 146 154 124 86 68 78 72 74 76 81 85 90 90 88 87 87 84
124 116 116 121 115 116 113 122 113 113 126 110 90 94 93 96 107 110 132 140 150 154 148 131 195 242 87 87 91 92 82 69 69 71 77 79 83 88 87 86 85 85 84
125 121 112 108 111 112 109 115 123 115 110 84 70 83 82 86 95 111 116 107 107 86 65 65 54 57 59 68 75 81 81 81 79 80 76 77 81 89 87 85 82 81 83
132 124 113 110 112 109 104 114 104 99 90 89 57 92 92 74 77 88 82 62 72 68 56 40 43 53 53 52 57 66 68 77 87 87 81 78 81 84 85 85 83 82 81
138 130 119 118 113 118 118 114 98 97 91 83 58 57 90 89 75 78 76 65 58 66 70 74 62 51 56 61 55 55 57 66 82 96 100 84 81 83 82 81 80 79 80
136 128 123 128 117 112 109 103 103 107 106 102 81 58 74 74 73 68 74 64 65 61 55 58 65 54 59 63 62 57 49 50 67 91 103 106 93 80 81 81 78 76 74
130 121 117 121 112 101 106 115 111 95 85 82 66 48 69 76 79 71 68 60 64 58 54 64 67 60 55 56 56 62 62 51 48 71 94 101 98 91 84 84 78 75 73
131 126 126 119 107 103 103 106 98 95 88 82 65 40 42 61 78 79 63 54 65 63 52 56 58 67 68 62 67 69 64 64 47 57 63 84 93 98 99 91 82 73 71
133 129 129 119 114 105 88 93 88 86 85 86 76 47 36 48 62 72 69 66 64 68 52 57 62 56 62 56 50 60 61 78 67 48 44 58 68 83 98 101 94 72 70
138 133 132 133 129 119 108 101 117 121 116 101 101 81 49 57 63 68 59 66 65 75 76 74 81 72 53 59 62 40 20 53 77 70 48 49 53 59 68 93 103 101 81
142 140 140 139 141 127 119 128 129 135 148 128 108 110 92 79 78 75 83 83 79 79 69 65 73 63 37 48 83 75 37 20 7 68 83 70 64 56 36 61 85 99 101
146 147 141 139 139 132 135 123 107 96 91 97 124 120 113 98 90 78 82 96 104 101 99 96 95 91 60 2 52 80 94 145 308 0 66 77 71 63 27 34 64 92 100
137 134 135 142 145 139 137 138 142 139 157 184 161 145 150 122 110 99 91 92 109 104 106 112 102 105 101 18 4 39 87 118 121 12 346 24 83 86 19 49 45 53 85
140 140 147 144 137 134 139 136 152 155 183 160 142 142 155 136 134 137 126 107 108 114 117 99 91 91 112 138 91 34 24 19 66 129 222 316 350 318 123 75 74 68 85
141 142 148 146 140 131 132 140 164 168 176 144 155 163 168 149 166 158 135 129 116 111 121 132 134 134 155 130 127 134 138 132 274 113 175 220 227 261 209 91 83 88 103